User: anonymous   Login
Location: Lawrence Hall of Science
(37.8785°N, 122.2415°W)
Time: 12:16:40
(UTC-07:00)
Language:

Cosmos 1461 - Orbit

View from above orbital plane
View from above orbital plane
View from above satellite
View from above satellite

Ground track
Ground track

The orbit data is extracted from the following two-line orbital elements,

1 14064U 83044A   16205.17989523  .00000476  00000-0  56232-4 0  9991
2 14064  64.9998 222.3323 0104410 186.0599 173.9262 14.93097876674222
Epoch (UTC): 23 July 2016 04:19:02
Eccentricity: 0.0104410
inclination: 64.9998°
perigee height: 515 km
apogee height: 661 km
right ascension of ascending node: 222.3323°
argument of perigee: 186.0599°
revolutions per day: 14.93097876
mean anomaly at epoch: 173.9262°
orbit number at epoch: 67422

The dashed part of the orbit path shows where the satellite is in the earth's shadow,  

DLR